Location: Chiroubles
(46.1812°N, 4.6660°E)
Time: 03:35:06
(UTC+00:00)

USA 32 - Pass Details

Date: 15 August 2020
Orbit: 778 x 782 km, 85.0° (Epoch: 27 September)

Event Time Altitude Azimuth Distance (km) Brightness Sun altitude
Exits shadow 20:21:22 - 184° (S) 2,856 6.6 -14.6°
Reaches altitude 10° 20:22:42 10° 184° (S) 2,328 6.2 -14.8°
Maximum altitude 20:27:57 90° 262° (W) 787 4.0 -15.5°
Drops below altitude 10° 20:33:13 10° 5° (N) 2,343 7.0 -16.2°
Sets 20:35:35 0° 6° (N) 3,275 7.8 -16.5°
